Tracking 26325 objects as of 29-Nov-2022
HD Live streaming from Space Station
objects crossing your sky now

STARLINK 1031

Track STARLINK 1031 now!
10-day predictions
STARLINK 1031 is classified as:


NORAD ID: 44736
Int'l Code: 2019-074Z
Perigee: 553.2 km
Apogee: 555.5 km
Inclination: 53.1 °
Period: 95.6 minutes
Semi major axis: 6925 km
RCS: Unknown
Launch date: November 11, 2019
Source: United States (US)
Launch site: AIR FORCE EASTERN TEST RANGE (AFETR)
aabbcc
Your satellite tracking list
Your tracking list is empty




NASA's NSSDC Master Catalog

Two Line Element Set (TLE):
1 44736U 19074Z   22332.99656736  .00000853  00000-0  76182-4 0  9992
2 44736  53.0523 178.7941 0001603  67.0303 293.0855 15.06396898168271
Source of the keplerian elements: AFSPC